Regional Weather Roundup
Issued by NWS Glasgow, MT

Home | Current Version | Previous Version | Text Only | Print | Product List | Glossary On
Versions: 1 2 3 4 5 6 7 8 9 10 11 12 13 14 15 16 17 18 19 20 21 22 23 24 25 26 27 28 29 30 31 32 33 34 35 36 37 38 39 40 41 42 43 44 45 46 47 48 49 50
000
ASUS45 KGGW 230515
RWRGGW
HOURLY WEATHER ROUNDUP FOR NORTHEAST MONTANA
NATIONAL WEATHER SERVICE GLASGOW MONTANA
1100 PM MDT FRI AUG 22 2014

NOTE: "FAIR" INDICATES FEW OR NO CLOUDS BELOW 12,000 FEET WITH NO
SIGNIFICANT WEATHER AND/OR OBSTRUCTIONS TO VISISBILITY.

NORTHEAST MONTANA


CITY           SKY/WX    TMP DP  RH WIND       PRES   REMARKS
GLASGOW        CLOUDY    62  53  72 E15       30.11R
PLENTYWOOD       N/A     60  53  77 E10         N/A
WOLF POINT     CLOUDY    64  54  69 E15       30.10F
JORDAN           N/A     61  57  87 E15       30.06F
WINNETT          N/A     58  55  90 NE7         N/A
SIDNEY         CLOUDY    63  57  82 NE12G17   30.12S
GLENDIVE       CLOUDY    61  61 100 NE15G21   30.08S
MALTA            N/A     59  55  87 NE8         N/A

FORT PECK REPORTS


CITY           SKY/WX    TMP DP  RH WIND       PRES   REMARKS
FORT PECK        N/A     61  54  77 NE15        N/A
THE PINES        N/A     62  54  74 NE15G24     N/A

SOUTHEAST MONTANA


CITY           SKY/WX    TMP DP  RH WIND       PRES   REMARKS
BILLINGS       HVY RAIN  58  57  97 N12       30.01F FOG
MILES CITY     CLOUDY    63  60  90 NE14      30.01F
BAKER          CLOUDY    64  61  90 E16       30.05F
LIVINGSTON     LGT RAIN  54  50  86 NE7       30.07F

CENTRAL MONTANA


CITY           SKY/WX    TMP DP  RH WIND       PRES   REMARKS
HAVRE          LGT RAIN  56  54  93 NE17      30.14F FOG
LEWISTOWN      RAIN      56  54  93 CALM      30.09F FOG
GREAT FALLS    CLOUDY    49  49 100 NW13      30.14S FOG
CUT BANK       LGT RAIN  47  45  93 N20G26    30.23F FOG
HELENA         LGT RAIN  53  49  86 N15       30.12R
BUTTE          LGT RAIN  49  46  90 CALM      30.13S
BOZEMAN        LGT RAIN  53  51  93 CALM      30.07F

WESTERN MONTANA


CITY           SKY/WX    TMP DP  RH WIND       PRES   REMARKS
MISSOULA       CLOUDY    60  49  66 N8G16     30.09R
KALISPELL      NOT AVBL

NORTH DAKOTA


CITY           SKY/WX    TMP DP  RH WIND       PRES   REMARKS
WILLISTON      CLOUDY    63  56  78 NE9       30.14R
DICKINSON      RAIN      62  61  96 E16       30.08R FOG
MINOT          CLOUDY    62  59  90 N7        30.14R
BISMARCK       CLOUDY    66  63  90 E10       30.09S

SOUTHERN SASKATCHEWAN


CITY           SKY/WX    TMP DP  RH WIND       PRES   REMARKS
REGINA         CLOUDY    57  50  77 E10       30.23R
ESTEVAN        CLOUDY    57  54  88 E12       30.20R
SWIFT CURRENT  LGT RAIN  55  52  88 NE12      30.23S



USA.gov is the U.S. government's official web portal to all federal, state and local government web resources and services.